Miscellaneous Local Product
Issued by NWS North Platte, NE

Home | Current Version | Previous Version | Graphics & Text | Print | Product List | Glossary On
Versions: 1 2 3 4 5 6 7 8 9 10 11 12 13 14 15 16 17 18 19 20 21 22 23 24 25 26 27 28 29 30 31 32 33 34 35 36 37 38 39 40 41 42 43 44 45 46 47 48 49 50
000
AXUS43 KLBF 050810
MISLBF


WESTERN AND NORTH CENTRAL NEBRASKA HOURLY WEATHER ROUNDUP
NATIONAL WEATHER SERVICE NORTH PLATTE NE
300 AM CDT SUN JUL 05 2015

***STATIONS NOT REPORTING VARIABLES SUCH AS SKY/WEATHER OR
PRESSURE ARE PROVIDED BY THE NEBRASKA DEPARTMENT OF
ROADS...RAWS...AND APRS NETWORKS...AND ARE NOT UNDER
NATIONAL WEATHER SERVICE QUALITY CONTROL***

...OBSERVATIONS IN AND NEAR THE EASTERN PANHANDLE OF NEBRASKA...

CITY           SKY/WX    TMP DP  RH WIND       PRES   REMARKS
PINE RIDGE     CLEAR     72  59  63 VRB3      29.83F
CHADRON        CLEAR     69  62  78 CALM      29.82F
ALLIANCE       MOCLDY    72  64  76 E9        29.86F
SIDNEY         MOCLDY    66  60  81 W6        29.91F
WHITECLAY        N/A     69  58  68 SE12        N/A
CRESCENT LAKE    N/A     72  64  74 S7          N/A
BIG SPRINGS      N/A     73  65  75 SE7         N/A
$$

...OBSERVATIONS IN NORTH CENTRAL NEBRASKA...

CITY           SKY/WX    TMP DP  RH WIND       PRES   REMARKS
VALENTINE      MOCLDY    76  52  43 SW16      29.78F
THEDFORD       CLOUDY    77  65  67 N15G24    29.92R
AINSWORTH      CLOUDY    76  65  67 S14G22    29.83F
O`NEILL        PTCLDY    72  64  78 S10       29.85F
ORD            CLOUDY    72  62  71 SE6       29.86F
BROKEN BOW     CLOUDY    74  63  68 SE8       29.88F
VALENTINE NWR    N/A     78  55  44 W15G35      N/A
SPRINGVIEW       N/A     74  66  75 CALM        N/A
HALSEY           N/A     76  63  64 S8G18       N/A
BREWSTER         N/A     79  68  68 W5          N/A
ROSE             N/A     84  80  88 S13         N/A  HX  96
NEWPORT          N/A     75  66  74 S12         N/A
SARGENT          N/A     70  64  82 CALM        N/A
CHAMBERS         N/A     69  63  82 S6G15       N/A
EWING            N/A     70  65  83 S5          N/A
$$

...OBSERVATIONS IN SOUTHWEST NEBRASKA AND FAR NORTHEAST COLORADO...

CITY           SKY/WX    TMP DP  RH WIND       PRES   REMARKS
WRAY           FAIR      72  59  63 S5        29.89F
HOLYOKE        FAIR      68  61  77 S7        29.89F
IMPERIAL       CLEAR     74  61  63 S8        29.88S
OGALLALA       CLEAR     72  63  73 CALM      29.87F
NORTH PLATTE   PTCLDY    74  63  68 SE10      29.85F
MCCOOK         MOCLDY    75  64  68 SE9       29.86F
LEXINGTON      MOCLDY    75  64  69 S14       29.87F
PAXTON           N/A     71  64  79 S12         N/A
GOTHENBURG       N/A     74  61  63 SE6         N/A
CALLAWAY         N/A     73  66  80 S14         N/A
$$

...NORTH PLATTE AREA...

CITY           SKY/WX    TMP DP  RH WIND       PRES   REMARKS
AIRPORT        PTCLDY    74  63  68 SE10      29.85F
DOWNTOWN         N/A     74  65  73 S3G12       N/A
HILLCREST        N/A     73  64  73 S9G17       N/A
$$

...SOME WEATHER OBSERVATIONS FROM AROUND THE REGION...

CITY           SKY/WX    TMP DP  RH WIND       PRES   REMARKS
DENVER         PTCLDY    70  50  49 SW13      29.98F
LARAMIE        CLOUDY    63  47  55 N21       30.15F
CHEYENNE       MOCLDY    65  52  62 CALM      30.03S
SCOTTSBLUFF    MOCLDY    67  62  84 E9        29.87S
RAPID CITY     CLEAR     69  62  78 SW12      29.81F
PIERRE         CLEAR     71  67  87 SE8       29.72F
WINNER         FAIR      77  63  61 S15       29.76S
SIOUX FALLS    CLOUDY    70  62  76 S14       29.86F
OMAHA          MOCLDY    69  62  78 S9        29.93F
GRAND ISLAND   MOCLDY    72  63  73 S15G26    29.89F
KANSAS CITY    CLEAR     68  64  87 SE7       29.99F FOG
WICHITA        PTCLDY    76  67  73 SE10      29.95F
HAYS           MOCLDY    75  63  64 S13       29.90F
LIBERAL        MOCLDY    73  61  64 S9        29.95S
GOODLAND       MOCLDY    72  62  71 S17       29.89F
$$



USA.gov is the U.S. government's official web portal to all federal, state and local government web resources and services.